Temp
-12 -13 -13 -12 -12 -11 -11 -10 -10 -10 -9 -9 -9 -9 -8 -9 -7 -8 -7 -8 -8 -7 -6 -6 -6 -7 -7 -7 -6 -6 -7 -6 -6 -6 -6 -6 -7 -6 -6 -5 -5 -6 -6 -6
-12 -13 -13 -13 -12 -11 -11 -11 -11 -11 -11 -10 -10 -9 -10 -9 -8 -8 -7 -8 -7 -7 -5 -5 -6 -7 -6 -7 -7 -6 -7 -6 -7 -7 -6 -7 -7 -6 -6 -6 -6 -6 -6 -6
-14 -13 -13 -12 -12 -12 -12 -11 -11 -11 -11 -10 -10 -10 -9 -9 -8 -8 -8 -9 -8 -7 -7 -6 -5 -6 -6 -7 -7 -6 -7 -7 -6 -6 -6 -6 -6 -7 -6 -6 -6 -6 -6 -6
-14 -14 -13 -12 -12 -12 -12 -12 -12 -11 -11 -11 -10 -10 -9 -9 -9 -9 -8 -8 -8 -7 -7 -7 -7 -7 -6 -7 -6 -6 -6 -6 -6 -5 -6 -6 -6 -7 -7 -6 -6 -6 -6 -5
-14 -14 -14 -13 -13 -12 -12 -12 -12 -12 -12 -12 -11 -10 -10 -10 -9 -9 -9 -9 -8 -8 -8 -7 -8 -7 -7 -7 -6 -6 -6 -6 -6 -6 -6 -6 -6 -6 -6 -6 -6 -6 -6 -6
-14 -14 -14 -14 -14 -13 -13 -13 -12 -12 -12 -12 -12 -11 -10 -10 -10 -9 -10 -9 -8 -8 -9 -9 -8 -7 -7 -6 -6 -6 -6 -6 -6 -6 -6 -7 -6 -6 -6 -6 -6 -6 -7 -7
-15 -15 -15 -15 -14 -14 -14 -13 -13 -12 -12 -12 -12 -12 -11 -11 -10 -10 -10 -11 -10 -10 -9 -8 -7 -7 -9 -8 -7 -7 -7 -7 -7 -7 -6 -6 -7 -6 -6 -7 -7 -8 -8 -7
-15 -15 -15 -15 -15 -14 -14 -14 -13 -13 -13 -12 -11 -12 -12 -11 -11 -11 -10 -11 -10 -10 -10 -9 -7 -8 -8 -8 -8 -8 -7 -7 -7 -7 -6 -7 -7 -7 -8 -8 -8 -9 -9 -8
-15 -15 -14 -15 -14 -15 -14 -14 -14 -14 -13 -13 -12 -12 -12 -12 -12 -11 -11 -11 -11 -10 -10 -9 -9 -8 -8 -8 -8 -9 -9 -8 -8 -8 -7 -7 -7 -7 -8 -8 -9 -9 -9 -9
-15 -15 -15 -15 -15 -15 -15 -15 -14 -14 -13 -13 -13 -12 -12 -11 -11 -11 -11 -11 -10 -10 -10 -10 -10 -9 -9 -9 -9 -10 -9 -9 -10 -10 -8 -8 -8 -8 -9 -9 -9 -10 -10 -9
-16 -16 -15 -15 -15 -15 -14 -14 -14 -14 -14 -13 -13 -13 -12 -12 -11 -11 -11 -11 -10 -10 -10 -9 -10 -9 -9 -10 -10 -10 -10 -10 -10 -10 -10 -9 -9 -9 -9 -9 -9 -9 -10 -9
-17 -16 -16 -15 -15 -15 -14 -14 -14 -13 -13 -13 -13 -12 -12 -12 -11 -11 -11 -10 -10 -10 -11 -11 -10 -10 -10 -10 -10 -10 -11 -10 -10 -11 -11 -11 -10 -10 -10 -10 -10 -10 -10 -10
-17 -16 -16 -16 -15 -15 -14 -14 -13 -13 -13 -13 -13 -13 -13 -12 -11 -11 -11 -11 -11 -11 -11 -11 -11 -11 -10 -10 -10 -11 -11 -11 -11 -12 -11 -11 -11 -11 -11 -10 -10 -10 -10 -10
-16 -16 -16 -16 -15 -15 -15 -15 -14 -13 -13 -14 -14 -13 -13 -13 -12 -12 -12 -12 -12 -11 -11 -11 -11 -11 -11 -11 -10 -11 -11 -11 -11 -12 -12 -12 -12 -12 -12 -11 -11 -10 -10 -11
-17 -16 -16 -16 -15 -15 -15 -14 -14 -14 -14 -14 -14 -13 -13 -13 -13 -13 -12 -12 -12 -12 -11 -12 -12 -12 -12 -12 -11 -11 -11 -12 -12 -11 -11 -12 -12 -12 -12 -12 -12 -12 -12 -11
-16 -16 -16 -16 -15 -15 -15 -15 -15 -15 -14 -14 -14 -14 -14 -14 -14 -14 -14 -13 -13 -13 -12 -13 -13 -13 -13 -13 -13 -13 -13 -13 -13 -13 -13 -13 -13 -13 -13 -13 -13 -13 -13 -13
-16 -16 -16 -16 -15 -15 -15 -15 -15 -15 -15 -14 -14 -14 -14 -14 -14 -14 -14 -14 -14 -14 -13 -14 -13 -13 -13 -13 -13 -13 -13 -14 -14 -14 -13 -13 -13 -13 -13 -13 -13 -13 -13 -13
-16 -15 -15 -16 -16 -15 -15 -15 -15 -15 -15 -15 -15 -14 -14 -14 -14 -15 -15 -15 -14 -14 -14 -14 -14 -14 -14 -14 -14 -14 -14 -14 -13 -13 -13 -14 -14 -14 -14 -14 -15 -15 -15 -15
-14 -15 -15 -15 -15 -15 -15 -15 -15 -15 -15 -15 -15 -15 -15 -15 -15 -14 -14 -14 -15 -15 -14 -14 -14 -14 -14 -14 -14 -14 -14 -14 -14 -14 -14 -14 -14 -14 -15 -15 -15 -15 -15 -15
-14 -14 -15 -15 -15 -15 -15 -15 -15 -15 -15 -15 -15 -15 -15 -15 -15 -15 -15 -15 -14 -14 -14 -14 -14 -14 -14 -14 -15 -15 -15 -15 -15 -15 -15 -15 -15 -16 -16 -16 -16 -16 -16 -16
-14 -14 -14 -14 -15 -15 -15 -15 -14 -14 -14 -15 -14 -14 -15 -15 -15 -15 -15 -15 -15 -15 -14 -14 -15 -15 -14 -14 -15 -15 -15 -15 -15 -16 -16 -16 -16 -17 -17 -17 -17 -17 -17 -17
-14 -14 -14 -14 -14 -14 -14 -14 -14 -14 -14 -14 -14 -14 -14 -14 -14 -13 -14 -14 -14 -14 -14 -14 -14 -15 -15 -15 -16 -16 -15 -15 -16 -16 -17 -18 -18 -18 -18 -18 -18 -19 -19 -18
-14 -14 -14 -14 -14 -14 -14 -14 -14 -14 -14 -14 -14 -14 -14 -14 -14 -15 -15 -15 -14 -14 -14 -15 -15 -15 -16 -16 -16 -17 -17 -17 -17 -18 -18 -18 -19 -19 -19 -19 -19 -19 -20 -20
-14 -14 -14 -14 -14 -14 -14 -14 -14 -14 -14 -14 -15 -15 -14 -14 -15 -15 -15 -15 -15 -15 -15 -15 -16 -16 -16 -16 -16 -16 -17 -18 -18 -19 -19 -19 -19 -19 -20 -20 -20 -20 -20 -20
-14 -14 -15 -14 -14 -14 -14 -14 -14 -14 -14 -15 -15 -15 -15 -15 -15 -15 -15 -15 -15 -16 -16 -16 -16 -16 -16 -16 -17 -17 -18 -18 -18 -19 -19 -19 -20 -20 -20 -20 -20 -20 -20 -21
-15 -15 -15 -15 -15 -15 -15 -15 -15 -15 -15 -16 -15 -16 -16 -15 -16 -16 -16 -16 -16 -17 -17 -17 -17 -16 -17 -17 -18 -18 -19 -19 -19 -19 -19 -19 -20 -20 -20 -21 -21 -22 -22 -22
-15 -14 -14 -14 -14 -14 -15 -15 -15 -15 -16 -16 -16 -16 -16 -15 -16 -16 -16 -17 -17 -18 -17 -17 -17 -17 -17 -18 -18 -18 -19 -19 -20 -20 -20 -20 -20 -21 -21 -22 -22 -22 -22 -22
Height
5814 5815 5820 5821 5824 5827 5831 5835 5840 5843 5846 5849 5851 5851 5853 5855 5859 5862 5864 5865 5866 5870 5872 5874 5880 5885 5886 5889 5893 5897 5901 5903 5906 5908 5911 5912 5914 5914 5914 5915 5917 5919 5920 5922
5808 5809 5812 5815 5819 5823 5826 5830 5833 5836 5841 5844 5846 5848 5851 5852 5855 5856 5859 5860 5862 5867 5871 5873 5872 5876 5881 5884 5888 5892 5895 5896 5898 5899 5903 5904 5907 5909 5910 5910 5911 5912 5914 5914
5800 5799 5802 5806 5813 5817 5819 5822 5828 5831 5835 5836 5838 5842 5845 5847 5851 5853 5856 5858 5859 5862 5864 5867 5870 5872 5874 5879 5883 5886 5888 5891 5892 5892 5893 5895 5898 5900 5904 5904 5904 5906 5906 5906
5796 5796 5797 5804 5807 5809 5813 5815 5820 5824 5826 5830 5833 5835 5837 5841 5844 5847 5847 5851 5854 5858 5856 5859 5863 5866 5870 5872 5874 5878 5880 5883 5884 5886 5886 5885 5890 5891 5895 5897 5896 5898 5899 5899
5790 5791 5792 5795 5799 5801 5805 5812 5814 5817 5820 5824 5827 5830 5832 5835 5838 5841 5841 5842 5845 5849 5850 5852 5856 5860 5862 5864 5866 5868 5871 5874 5877 5877 5878 5881 5883 5884 5885 5886 5888 5890 5891 5892
5784 5785 5785 5790 5794 5797 5801 5804 5809 5811 5814 5816 5820 5822 5824 5828 5833 5837 5838 5837 5841 5842 5848 5850 5850 5853 5853 5853 5854 5859 5861 5865 5868 5870 5872 5874 5875 5876 5876 5876 5876 5878 5881 5885
5777 5778 5780 5782 5786 5789 5793 5802 5802 5806 5808 5811 5814 5817 5818 5819 5824 5829 5832 5834 5835 5839 5843 5847 5846 5844 5844 5842 5841 5849 5846 5855 5859 5860 5862 5863 5864 5864 5864 5864 5866 5870 5874 5876
5772 5772 5774 5776 5780 5784 5789 5789 5795 5797 5801 5804 5807 5808 5811 5812 5814 5819 5823 5825 5830 5833 5837 5840 5841 5838 5838 5838 5840 5840 5841 5841 5844 5844 5846 5854 5851 5853 5853 5854 5858 5863 5867 5869
5766 5765 5766 5770 5774 5776 5780 5784 5787 5791 5793 5796 5799 5802 5804 5806 5807 5810 5816 5818 5820 5825 5828 5831 5834 5836 5835 5836 5835 5836 5836 5837 5840 5842 5841 5843 5844 5846 5848 5851 5853 5855 5858 5861
5759 5760 5761 5764 5766 5770 5774 5776 5780 5783 5785 5788 5792 5795 5798 5801 5802 5803 5806 5809 5813 5816 5820 5822 5825 5827 5828 5828 5829 5829 5831 5830 5832 5834 5836 5838 5840 5842 5842 5845 5847 5849 5852 5854
5754 5754 5755 5758 5759 5763 5767 5771 5775 5778 5777 5779 5783 5787 5791 5793 5795 5797 5798 5800 5803 5807 5810 5813 5814 5815 5817 5818 5818 5819 5821 5824 5824 5827 5830 5832 5833 5835 5837 5838 5840 5842 5843 5844
5749 5750 5752 5754 5754 5757 5761 5765 5769 5772 5773 5773 5774 5778 5782 5785 5787 5789 5789 5790 5793 5797 5800 5802 5805 5805 5805 5806 5807 5809 5809 5813 5816 5817 5819 5823 5826 5828 5829 5830 5830 5832 5833 5834
5743 5745 5748 5751 5751 5755 5757 5759 5762 5766 5769 5769 5770 5772 5775 5778 5781 5781 5781 5782 5784 5786 5789 5792 5797 5796 5796 5796 5797 5799 5799 5802 5805 5805 5808 5811 5813 5814 5815 5816 5819 5819 5820 5822
5736 5740 5745 5747 5749 5752 5755 5756 5759 5762 5764 5767 5768 5770 5771 5772 5775 5776 5776 5776 5777 5779 5781 5782 5783 5785 5785 5785 5786 5786 5787 5788 5790 5790 5792 5794 5797 5800 5802 5802 5803 5804 5806 5806
5733 5736 5740 5744 5748 5749 5752 5754 5756 5758 5761 5763 5764 5765 5766 5767 5768 5768 5769 5770 5771 5772 5772 5773 5774 5776 5776 5776 5776 5775 5775 5776 5778 5779 5780 5781 5783 5784 5785 5786 5787 5788 5788 5789
5731 5734 5738 5741 5744 5746 5749 5751 5751 5754 5757 5758 5760 5761 5762 5763 5763 5763 5764 5763 5763 5764 5764 5763 5764 5765 5766 5766 5766 5766 5765 5765 5765 5766 5766 5767 5769 5769 5769 5769 5769 5771 5770 5770
5731 5734 5736 5739 5741 5743 5745 5747 5749 5752 5754 5755 5756 5756 5757 5757 5757 5757 5757 5756 5757 5757 5758 5758 5757 5757 5757 5757 5757 5757 5757 5757 5758 5758 5757 5756 5756 5755 5755 5755 5755 5755 5755 5754
5733 5733 5735 5737 5740 5742 5744 5745 5747 5749 5750 5751 5750 5751 5751 5750 5751 5751 5751 5751 5752 5752 5750 5750 5751 5751 5751 5752 5751 5750 5749 5749 5748 5748 5747 5747 5745 5744 5743 5742 5740 5739 5738 5737
5735 5735 5737 5738 5740 5742 5743 5744 5745 5746 5747 5747 5746 5744 5745 5747 5747 5747 5747 5747 5748 5745 5744 5745 5746 5746 5746 5746 5745 5744 5743 5741 5740 5738 5737 5735 5734 5732 5731 5728 5727 5726 5726 5724
5735 5736 5736 5737 5738 5739 5741 5741 5742 5743 5743 5742 5742 5743 5745 5745 5744 5743 5742 5741 5739 5738 5738 5740 5740 5738 5738 5737 5736 5735 5733 5732 5730 5728 5727 5725 5723 5721 5718 5716 5715 5713 5711 5709
5735 5735 5735 5735 5736 5736 5737 5738 5739 5739 5739 5739 5740 5740 5740 5741 5740 5739 5738 5736 5735 5733 5732 5731 5730 5729 5728 5726 5725 5724 5722 5720 5718 5716 5713 5710 5708 5706 5704 5701 5699 5698 5696 5694
5734 5734 5734 5734 5733 5734 5735 5735 5735 5735 5735 5734 5734 5733 5733 5733 5732 5730 5727 5726 5724 5723 5722 5721 5721 5719 5717 5715 5713 5711 5708 5706 5704 5702 5700 5697 5695 5693 5691 5689 5686 5683 5680 5678
5733 5733 5734 5734 5733 5733 5732 5732 5732 5731 5730 5728 5727 5727 5726 5725 5724 5722 5722 5719 5716 5714 5713 5711 5709 5707 5705 5703 5701 5699 5695 5692 5690 5687 5685 5683 5682 5680 5677 5674 5672 5670 5667 5665
5730 5729 5729 5729 5729 5728 5727 5727 5726 5724 5723 5721 5719 5718 5718 5717 5716 5714 5713 5710 5708 5706 5703 5701 5699 5698 5696 5694 5691 5688 5685 5682 5679 5676 5673 5671 5668 5666 5663 5660 5658 5655 5652 5650
5724 5724 5724 5724 5723 5722 5721 5719 5718 5715 5714 5712 5710 5709 5708 5707 5706 5706 5703 5700 5698 5695 5694 5693 5691 5689 5686 5683 5680 5677 5674 5672 5669 5666 5664 5661 5658 5655 5652 5648 5645 5641 5637 5634
5717 5717 5717 5717 5717 5715 5712 5711 5710 5708 5706 5704 5703 5701 5700 5698 5696 5695 5692 5689 5687 5686 5684 5683 5681 5679 5676 5673 5670 5667 5665 5662 5659 5657 5654 5651 5648 5644 5640 5636 5633 5630 5626 5623
5710 5709 5708 5708 5708 5706 5704 5702 5700 5698 5698 5696 5694 5693 5691 5689 5687 5686 5683 5680 5677 5676 5675 5674 5671 5669 5666 5663 5661 5658 5656 5653 5650 5648 5645 5642 5639 5635 5632 5629 5626 5622 5618 5614
Wind_Speed
35 38 39 36 34 35 33 31 28 27 26 24 23 25 25 19 13 15 19 30 22 20 20 23 22 26 31 32 29 27 21 26 24 28 30 25 27 29 28 26 24 23 24 22
39 42 44 43 39 35 34 34 34 34 31 30 28 30 28 23 15 16 18 24 29 27 23 21 24 18 27 31 29 29 18 19 18 26 34 32 30 33 30 27 28 29 27 25
29 36 33 48 40 38 39 40 40 39 34 35 35 34 32 27 22 20 24 28 30 31 25 20 25 27 24 28 25 27 27 24 30 25 34 41 34 33 30 27 26 23 26 26
27 32 37 37 43 37 42 40 41 37 35 41 37 36 36 34 31 31 28 36 42 34 33 27 28 31 32 33 33 32 24 33 31 26 29 31 34 32 34 33 30 25 25 30
23 30 37 34 41 32 40 35 40 42 40 40 41 42 39 38 37 33 28 31 37 24 13 35 34 33 33 32 29 32 37 37 32 25 31 31 35 32 37 39 40 35 31 30
21 27 32 35 33 35 33 31 45 41 42 41 42 43 45 43 36 31 29 33 33 28 5 12 15 36 38 34 36 36 37 35 33 29 31 32 42 38 34 38 36 33 32 31
22 27 29 31 36 34 35 37 37 41 47 43 46 47 48 47 44 39 34 24 24 14 18 18 18 20 24 27 29 35 40 35 31 31 38 33 43 35 32 29 34 23 25 27
18 23 26 26 29 37 36 30 37 41 38 41 44 49 46 47 49 45 40 35 28 20 18 22 29 25 27 30 32 35 28 26 29 38 34 38 34 30 28 26 27 26 25 24
19 17 22 29 25 32 39 38 38 32 36 37 39 50 47 53 54 53 47 45 41 38 32 29 30 35 38 39 39 36 36 35 29 18 18 21 19 16 23 27 22 24 28 28
20 17 14 15 22 21 25 27 27 27 38 38 34 33 40 44 43 44 42 37 36 38 40 35 36 40 43 44 44 39 35 37 37 33 31 31 29 27 32 30 28 24 27 30
20 19 16 11 16 22 24 26 21 20 18 31 40 36 34 36 41 47 48 45 42 42 42 44 43 43 45 48 48 47 46 43 41 42 39 36 35 33 31 30 29 29 33 36
15 19 19 15 13 19 21 19 22 21 19 17 26 35 38 37 39 42 46 48 48 50 46 46 42 34 36 44 47 50 49 48 47 44 43 42 38 39 41 39 39 38 39 40
16 19 23 19 15 15 16 12 16 16 17 17 18 18 21 24 24 22 24 28 32 37 41 41 38 39 39 36 40 45 48 48 47 47 46 45 44 44 45 46 48 49 49 49
19 18 17 17 18 17 17 16 18 20 20 17 17 17 17 17 19 20 18 20 23 27 31 35 36 37 37 41 40 44 47 50 50 50 49 47 47 48 49 49 50 52 54 54
20 16 17 19 18 18 17 15 16 17 18 20 21 20 19 19 19 16 17 17 18 21 24 26 27 32 37 40 42 44 45 47 51 54 53 51 51 49 50 51 50 51 55 57
10 13 15 17 18 17 16 16 14 14 17 19 20 19 19 19 18 17 17 16 14 16 17 22 27 27 30 35 40 43 43 43 43 45 47 47 48 50 50 51 51 52 54 56
8 10 12 13 14 13 12 12 12 14 15 16 16 16 17 18 18 19 19 19 19 18 17 17 18 22 28 31 32 34 34 35 39 41 40 44 47 45 44 44 46 47 48 52
9 8 9 8 9 11 12 12 13 14 14 13 13 14 14 13 12 12 13 12 13 12 12 13 16 19 21 24 25 28 30 33 35 36 37 39 40 42 45 46 46 45 47 50
10 10 10 10 10 10 11 12 12 12 11 11 9 6 7 10 12 13 14 14 15 14 13 17 18 19 20 20 21 23 26 28 29 31 33 36 38 39 40 40 41 42 42 43
3 5 5 5 5 5 5 4 4 4 5 6 8 10 11 13 14 15 17 18 20 22 23 23 24 25 26 28 28 30 32 33 34 36 38 39 40 41 42 44 45 46 46 47
1 1 2 3 4 4 4 4 5 7 8 10 12 13 14 14 15 18 21 23 25 28 30 31 29 31 34 36 36 36 36 39 40 40 41 42 42 41 43 45 47 48 49 50
5 4 4 6 7 7 9 12 13 14 15 16 17 19 20 21 22 25 27 29 30 30 32 35 37 39 41 41 40 40 43 42 41 37 35 37 38 40 42 44 44 45 48 50
7 6 6 7 8 11 13 15 17 19 20 23 25 25 25 26 27 31 32 33 36 39 39 39 41 42 40 38 37 36 37 37 38 38 39 38 38 40 42 43 43 43 43 45
10 11 12 13 15 18 21 22 21 21 22 24 25 25 25 28 27 24 26 31 32 32 33 34 34 34 34 34 35 35 33 32 34 36 37 39 40 41 42 43 44 46 47 47
14 14 15 18 20 22 25 28 28 24 23 26 24 23 22 23 20 24 26 28 32 28 27 29 31 30 31 33 34 34 32 32 33 34 35 36 38 40 41 42 42 43 43 43
18 21 22 22 24 27 29 28 30 26 30 28 27 23 24 22 19 24 36 37 38 28 25 29 31 32 33 33 31 30 29 29 29 30 31 32 33 35 34 33 31 31 31 33
27 27 29 30 30 35 36 33 30 31 32 25 28 26 27 27 29 35 33 34 29 24 26 31 31 30 31 32 30 27 25 26 26 27 29 29 27 25 24 26 27 28 29 29
Wind_Direction
220 202 212 220 224 228 224 218 221 219 225 236 235 244 254 255 238 240 237 216 188 211 191 186 196 210 216 222 229 230 257 244 241 248 238 240 249 250 249 243 245 247 248 249
230 211 209 214 224 224 228 221 215 215 220 232 237 243 242 252 237 234 241 262 201 209 208 211 199 190 214 220 217 225 225 215 241 245 234 235 245 240 245 246 246 249 244 248
241 244 229 216 220 225 227 232 225 226 222 226 233 239 244 246 247 232 224 225 246 231 222 231 230 215 208 205 211 232 229 238 252 260 243 250 232 226 228 231 241 247 241 244
239 244 246 234 216 228 226 228 229 232 234 234 233 237 242 245 247 251 260 229 237 244 224 212 218 215 223 221 216 222 237 249 253 265 233 222 234 219 227 236 243 243 239 257
242 244 244 240 233 236 211 224 230 233 237 239 240 241 245 247 245 251 256 247 246 225 254 225 212 216 218 221 227 224 226 240 246 237 221 227 237 243 242 232 237 248 240 241
255 242 246 239 237 243 241 231 228 239 238 241 244 247 248 248 249 250 258 266 260 232 290 275 246 224 226 232 227 225 230 238 245 233 229 236 235 243 240 237 235 234 237 240
259 243 252 247 237 236 236 232 234 237 241 248 253 251 252 254 256 255 254 254 272 268 241 237 253 278 290 268 257 219 228 231 235 234 241 240 236 231 237 229 224 237 248 248
243 245 245 249 246 240 239 238 234 235 237 242 252 250 253 255 257 258 262 267 266 262 260 240 247 269 278 287 283 271 247 224 267 223 245 238 236 236 212 220 220 228 235 243
244 248 242 239 254 250 244 249 247 242 235 236 246 243 254 256 260 267 268 275 269 258 264 264 267 266 270 275 282 282 274 271 275 279 247 230 245 253 228 230 224 236 241 246
241 240 237 232 233 238 236 255 239 260 253 249 252 253 251 253 257 262 264 273 270 262 261 266 277 272 269 270 271 272 269 274 275 274 261 269 276 265 278 288 284 250 244 245
238 230 225 230 230 229 242 233 240 249 259 257 252 256 257 263 258 259 265 267 268 265 266 270 276 274 264 261 265 265 265 269 270 275 276 274 274 272 265 263 255 254 247 247
247 237 227 215 216 222 226 233 241 239 256 265 248 250 257 263 263 265 263 261 262 264 267 269 270 274 269 261 262 265 266 264 267 268 269 266 261 259 261 259 257 254 253 254
236 232 224 229 207 206 193 189 209 231 228 244 245 245 244 235 239 251 256 258 259 263 268 265 266 268 276 271 260 263 267 266 266 267 267 265 264 263 260 260 261 262 260 258
219 227 220 223 211 210 217 213 209 205 215 226 233 237 245 250 252 251 254 258 258 255 253 253 252 253 260 265 268 261 261 263 266 270 270 269 269 267 266 263 262 263 263 263
200 195 197 196 203 202 213 213 211 215 222 228 232 236 240 245 249 253 254 256 262 265 268 266 263 261 258 256 259 262 264 265 267 268 269 271 272 270 269 268 266 265 262 262
186 190 198 197 198 208 219 226 225 228 231 233 242 247 254 259 262 265 266 265 266 267 268 266 265 268 268 267 267 267 267 270 272 272 270 269 269 272 272 270 270 269 268 270
171 187 195 196 202 211 217 215 230 243 244 247 251 258 259 265 274 278 282 282 281 281 281 279 270 266 269 269 268 271 272 272 268 270 269 265 264 263 261 265 264 265 266 265
117 134 152 167 175 186 202 213 223 233 239 249 261 268 275 280 285 287 292 293 288 283 280 282 276 273 270 271 273 273 271 270 270 271 270 269 268 266 267 270 270 270 269 270
89 101 114 126 133 148 165 180 190 197 202 212 224 251 288 285 289 290 289 289 295 297 295 287 288 286 282 280 280 280 279 278 279 278 278 277 276 274 273 271 270 271 272 272
64 101 117 123 128 136 146 168 200 228 251 267 269 268 269 270 276 288 291 294 295 292 291 290 293 292 292 293 294 292 292 292 291 289 287 286 285 284 283 281 281 279 277 275
261 327 333 330 326 325 310 291 277 271 272 268 267 269 272 270 277 291 289 285 283 284 287 287 289 292 292 291 291 290 290 291 292 292 291 290 289 282 279 277 276 273 271 272
241 250 266 277 282 286 287 288 288 288 286 281 287 288 284 283 280 290 295 293 290 291 290 287 286 285 284 283 285 287 292 294 295 293 288 282 280 278 278 277 277 277 279 279
242 250 267 278 290 297 300 301 300 295 287 285 282 283 285 287 288 288 290 287 283 279 282 285 287 287 288 288 289 292 296 297 296 294 290 287 284 283 283 282 282 280 278 277
274 286 296 299 305 309 310 312 308 298 291 288 284 280 284 286 288 296 298 298 294 290 286 285 286 285 286 291 295 297 298 296 294 292 290 289 288 287 285 284 284 283 282 280
266 280 289 296 302 301 303 303 304 294 304 299 291 290 291 287 278 294 307 317 314 302 292 290 289 292 296 300 300 299 297 294 291 289 288 287 287 287 288 287 286 285 284 283
272 275 280 286 291 294 298 297 304 286 302 290 284 278 288 288 291 306 303 299 310 286 284 297 300 299 301 302 300 298 294 291 290 292 293 294 294 293 293 293 294 295 294 292
266 278 275 275 284 293 296 297 289 281 286 274 276 281 285 273 289 301 296 296 299 287 295 295 296 301 302 303 303 302 299 298 298 298 299 299 300 302 302 304 304 304 303 302